Location: Damada
(14.7329°N, 3.1761°W)
Time: 22:39:37
(UTC+00:00)

ADEOS Rocket - Pass Details

Date: 18 February 2020
Orbit: 859 x 1306 km, 98.7° (Epoch: 05 April)

Event Time Altitude Azimuth Distance (km) Brightness Sun altitude
Rises 18:34:26 0° 16° (NNE) 4,288 6.1 -4.8°
Reaches altitude 10° 18:37:11 10° 18° (NNE) 3,319 5.5 -5.4°
Maximum altitude 18:44:57 73° 102° (ESE) 1,328 3.6 -7.3°
Drops below altitude 10° 18:52:19 10° 186° (S) 3,165 5.9 -9.0°
Sets 18:54:52 0° 188° (S) 4,080 6.5 -9.6°
